Regional Weather Roundup
Issued by NWS Sterling, VA

Home | Current Version | Previous Version | Graphics & Text | Print | Product List | Glossary On
Versions: 1 2 3 4 5 6 7 8 9 10 11 12 13 14 15 16 17 18 19 20 21 22 23 24 25 26 27
000
ASUS41 KLWX 201611
RWRLWX

REGIONAL WEATHER ROUNDUP
NATIONAL WEATHER SERVICE BALTIMORE MD/WASHINGTON DC
1200 PM EDT FRI OCT 20 2017

Note: "FAIR" indicates few or no clouds below 12,000 feet
with no significant weather and/or obstructions to visibility.
 TC=TEMPERATURE CELSIUS

 * =Non NWS site. Station does not report precipitation (e.g. rain,
    snow, etc.), thunder, or fog.

DCZ001-MDZ009-015-VAZ040>042-051-053>054-201700-
WASHINGTON METRO

CITY           SKY/WX    TMP DP  RH WIND       PRES   REMARKS
WASHINGTON NAT PTSUNNY   72  51  47 NW14      30.26S
DULLES         PTSUNNY   72  51  47 W9        30.26F
ANDREWS AFB    MOSUNNY   70  49  48 NW9       30.25R
FT BELVOIR     MOSUNNY   73  50  44 NW6       30.25S
QUANTICO       PTSUNNY   75  52  44 N9        30.26F
COLLEGE PARK*  SUNNY     69  50  50 NW7       30.25S
LEESBURG*      MOSUNNY   72  54  53 N10G16    30.27F
MANASSAS*      MOSUNNY   73  51  46 NW7       30.26F
GAITHERSBURG*  SUNNY     69  50  50 VRB3      30.27S

$$

MDZ006>007-011-014-201700-
BALTIMORE METRO

CITY           SKY/WX    TMP DP  RH WIND       PRES   REMARKS
BWI AIRPORT    MOSUNNY   71  52  50 NW7       30.24S
MD SCIENCE CTR   N/A     72  48  42 MISG      30.24S
MARTIN STATE   MOSUNNY   72  55  56 NW9       30.25S
ANNAPOLIS      SUNNY     72  54  53 NW8       30.24S
FORT MEADE*    SUNNY     70  52  52 NW5       30.27S

$$

MDZ012-015-019>023-201700-
MARYLAND EASTERN SHORE

CITY           SKY/WX    TMP DP  RH WIND       PRES   REMARKS
OCEAN CITY     SUNNY     73  53  49 N10       30.22S
SALISBURY      SUNNY     73  53  49 N8        30.22S
CAMBRIDGE*     SUNNY     72  52  49 NW12      30.23S
EASTON*        SUNNY     73  50  43 NW10      30.27R

$$

MDZ017>025-201700-
SOUTHERN MARYLAND

CITY           SKY/WX    TMP DP  RH WIND       PRES   REMARKS
PATUXENT RIVER PTSUNNY   72  52  49 NW9       30.24S
ST INIGOES     SUNNY     74  53  48 VRB5      30.23S
LEONARDTOWN*   NOT AVBL

$$

MDZ003>005-201700-
NORTH CENTRAL MARYLAND

CITY           SKY/WX    TMP DP  RH WIND       PRES   REMARKS
FREDERICK*     SUNNY     73  45  35 N6        30.28F
HAGERSTOWN APT SUNNY     69  48  47 NW7       30.27S
WESTMINSTER*   SUNNY     66  48  52 N3        30.26S

$$

MDZ501>502-201700-
WESTERN MARYLAND

CITY           SKY/WX    TMP DP  RH WIND       PRES   REMARKS
OAKLAND*       CLOUDY    57  43  58 W7        30.31R
CUMBERLAND*    SUNNY     68  48  49 E3        30.32F

$$

VAZ025>031-201700-
SHENANDOAH VALLEY

CITY           SKY/WX    TMP DP  RH WIND       PRES   REMARKS
WINCHESTER*    SUNNY     68  48  49 NW10      30.28S
FRONT ROYAL*   SUNNY     70  50  49 NW5       30.27F
LURAY*         SUNNY     70  50  49 S3        30.28F
NEW MARKET*    SUNNY     70  47  43 W3        30.28F
STAUNTON*      SUNNY     69  47  44 SW3       30.32S
WAYNESBORO*    MOSUNNY   68  50  52 CALM      30.31S

$$

WVZ021-048>050-054>055-201700-
EASTERN WEST VIRGINIA PANHANDLE

CITY           SKY/WX    TMP DP  RH WIND       PRES   REMARKS
MARTINSBURG    SUNNY     70  45  40 NW8       30.27S
PETERSBURG*    SUNNY     67  50  52 CALM      30.29S

$$

VAZ036>039-050-201700-
CENTRAL FOOTHILLS

CITY           SKY/WX    TMP DP  RH WIND       PRES   REMARKS
CHARLOTTESVILL MOSUNNY   76  51  41 VRB3      30.27S
CULPEPER*      CLOUDY    74  49  41 N9        30.27S
ORANGE*        MOSUNNY   73  52  46 CALM      30.26F
GORDONSVILLE*  CLOUDY    73  52  47 CALM      30.26S
WARRENTON*     CLOUDY    76  44  32 NW7       30.26S

$$

VAZ055>057-201700-
NORTH AND CENTRAL PIEDMONT

CITY           SKY/WX    TMP DP  RH WIND       PRES   REMARKS
FREDERICKSBRG* CLOUDY    74  53  48 N8        30.25S
STAFFORD*      MOSUNNY   73  50  44 N10       30.30S

$$

NCZ024-NYZ072-PAZ021-071-VAZ022-071-201700-
OTHER REGIONAL OBSERVATIONS

CITY           SKY/WX    TMP DP  RH WIND       PRES   REMARKS
NEW YORK CITY  SUNNY     69  28  21 W8        30.18F
PHILADELPHIA   MOSUNNY   70  36  28 NW8       30.21F
PITTSBURGH     MOSUNNY   66  33  29 N6        30.32S
ROANOKE        CLOUDY    70  49  47 NW3       30.34F
RICHMOND       MOSUNNY   74  51  44 N10       30.26S
RALEIGH        CLOUDY    70  47  43 NE5       30.28F

$$

ANZ530>537-201700-
MARINE OBSERVATIONS

STATION/POSITION TIME  TEMP    WIND        PRES
                       AIR SEA DIR/SP/G
                 (UTC) (F)     (DEG/KT/KT) (MB)
THOMAS PT LIGHT  NOT AVBL

$$





USA.gov is the U.S. government's official web portal to all federal, state and local government web resources and services.